| time (UTC) | temp F | wind direction | speed knots | gust knots | rain 1hr in | rain 24hr in | rain mn in | humidity % | barometer mb |
| 20260905233104 | 71 | 0 | 0.0 | 0.0 | 0.00 | 0.00 | 0.00 | 72 | 1024.5 |
| 20260905231559 | 71 | 0 | 0.0 | 0.9 | 0.00 | 0.00 | 0.00 | 71 | 1024.5 |
| 20260905230109 | 71 | 0 | 0.0 | 1.7 | 0.00 | 0.00 | 0.00 | 71 | 1024.5 |
| 20260905224608 | 71 | 0 | 0.0 | 0.9 | 0.00 | 0.00 | 0.00 | 70 | 1024.5 |
| 20260905223100 | 71 | 0 | 0.0 | 2.6 | 0.00 | 0.00 | 0.00 | 71 | 1024.4 |
| 20260905221556 | 71 | 346 | 1.7 | 3.5 | 0.00 | 0.00 | 0.00 | 71 | 1024.4 |
| 20260905220121 | 71 | 0 | 0.0 | 0.9 | 0.00 | 0.00 | 0.00 | 71 | 1024.3 |
| 20260905214600 | 72 | 0 | 0.0 | 0.0 | 0.00 | 0.00 | 0.00 | 73 | 1024.2 |
| 20260905213104 | 72 | 0 | 0.0 | 0.9 | 0.00 | 0.00 | 0.00 | 73 | 1024.1 |
| 20260905211554 | 72 | 0 | 0.0 | 1.7 | 0.00 | 0.00 | 0.00 | 74 | 1024.0 |
| 20260905210104 | 72 | 350 | 0.0 | 1.7 | 0.00 | 0.00 | 0.00 | 73 | 1024.0 |
| 20260905204600 | 73 | 350 | 0.9 | 3.5 | 0.00 | 0.00 | 0.00 | 72 | 1024.0 |
| 20260905203107 | 73 | 355 | 0.0 | 1.7 | 0.00 | 0.00 | 0.00 | 71 | 1023.9 |
| 20260905201603 | 74 | 336 | 0.9 | 2.6 | 0.00 | 0.00 | 0.00 | 71 | 1023.9 |
| 20260905194558 | 74 | 319 | 0.9 | 3.5 | 0.00 | 0.00 | 0.00 | 71 | 1023.8 |
| 20260905193104 | 75 | 319 | 1.7 | 3.5 | 0.00 | 0.00 | 0.00 | 70 | 1023.7 |
| 20260905191604 | 75 | 335 | 0.9 | 4.3 | 0.00 | 0.00 | 0.00 | 69 | 1023.5 |
| 20260905190113 | 75 | 355 | 1.7 | 3.5 | 0.00 | 0.00 | 0.00 | 69 | 1023.2 |
| 20260905184604 | 76 | 336 | 1.7 | 5.2 | 0.00 | 0.00 | 0.00 | 68 | 1023.1 |
| 20260905183125 | 76 | 328 | 1.7 | 4.3 | 0.00 | 0.00 | 0.00 | 68 | 1023.1 |
| 20260905181605 | 76 | 336 | 2.6 | 5.2 | 0.00 | 0.00 | 0.00 | 67 | 1022.9 |
| 20260905174555 | 77 | 336 | 3.5 | 5.2 | 0.00 | 0.00 | 0.00 | 66 | 1022.7 |
| 20260905173103 | 78 | 360 | 2.6 | 5.2 | 0.00 | 0.00 | 0.00 | 65 | 1022.6 |
| 20260905171605 | 79 | 327 | 2.6 | 5.2 | 0.00 | 0.00 | 0.00 | 64 | 1022.5 |
| 20260905164604 | 82 | 5 | 0.9 | 2.6 | 0.00 | 0.00 | 0.00 | 58 | 1022.4 |
| 20260905163055 | 84 | 5 | 0.9 | 2.6 | 0.00 | 0.00 | 0.00 | 56 | 1022.4 |
| 20260905161601 | 84 | 0 | 0.0 | 1.7 | 0.00 | 0.00 | 0.00 | 55 | 1022.3 |
| 20260905160122 | 85 | 343 | 0.9 | 5.2 | 0.00 | 0.00 | 0.00 | 54 | 1022.3 |
| 20260905154556 | 87 | 126 | 0.0 | 2.6 | 0.00 | 0.00 | 0.00 | 51 | 1022.3 |
| 20260905153101 | 87 | 66 | 0.9 | 2.6 | 0.00 | 0.00 | 0.00 | 51 | 1022.1 |
| 20260905151609 | 87 | 0 | 1.7 | 7.0 | 0.00 | 0.00 | 0.00 | 51 | 1022.1 |
| 20260905150057 | 88 | 67 | 2.6 | 7.0 | 0.00 | 0.00 | 0.00 | 49 | 1022.1 |
| 20260905144555 | 88 | 115 | 0.0 | 6.1 | 0.00 | 0.00 | 0.00 | 47 | 1022.1 |
| 20260905143100 | 88 | 110 | 0.9 | 6.1 | 0.00 | 0.00 | 0.00 | 46 | 1022.2 |
| 20260905141601 | 88 | 114 | 1.7 | 7.8 | 0.00 | 0.00 | 0.00 | 47 | 1022.2 |
| 20260905140108 | 88 | 103 | 2.6 | 6.1 | 0.00 | 0.00 | 0.00 | 47 | 1022.2 |
| 20260905134554 | 88 | 89 | 1.7 | 7.8 | 0.00 | 0.00 | 0.00 | 46 | 1022.4 |
| 20260905133102 | 88 | 0 | 1.7 | 7.8 | 0.00 | 0.00 | 0.00 | 43 | 1022.6 |
| 20260905131608 | 88 | 129 | 3.5 | 8.7 | 0.00 | 0.00 | 0.00 | 43 | 1022.6 |
| 20260905130110 | 88 | 120 | 2.6 | 7.8 | 0.00 | 0.00 | 0.00 | 45 | 1022.7 |
| 20260905124603 | 88 | 139 | 2.6 | 7.8 | 0.00 | 0.00 | 0.00 | 45 | 1022.7 |
| 20260905123102 | 88 | 131 | 2.6 | 7.8 | 0.00 | 0.00 | 0.00 | 44 | 1022.7 |
| 20260905121603 | 88 | 134 | 0.9 | 4.3 | 0.00 | 0.00 | 0.00 | 42 | 1022.7 |
| 20260905120113 | 87 | 19 | 3.5 | 8.7 | 0.00 | 0.00 | 0.00 | 41 | 1022.7 |
| 20260905114558 | 88 | 113 | 3.5 | 10.4 | 0.00 | 0.00 | 0.00 | 37 | 1022.7 |
| 20260905113056 | 88 | 111 | 2.6 | 7.8 | 0.00 | 0.00 | 0.00 | 35 | 1022.7 |
| 20260905111613 | 88 | 97 | 2.6 | 8.7 | 0.00 | 0.00 | 0.00 | 35 | 1022.7 |
| 20260905110101 | 88 | 111 | 2.6 | 7.0 | 0.00 | 0.00 | 0.00 | 34 | 1022.8 |
| 20260905104600 | 88 | 336 | 0.9 | 8.7 | 0.00 | 0.00 | 0.00 | 33 | 1022.7 |
| 20260905103056 | 88 | 90 | 3.5 | 7.0 | 0.00 | 0.00 | 0.00 | 32 | 1022.8 |
| 20260905101606 | 88 | 95 | 2.6 | 7.0 | 0.00 | 0.00 | 0.00 | 30 | 1022.7 |
| 20260905094558 | 87 | 151 | 1.7 | 7.0 | 0.00 | 0.00 | 0.00 | 30 | 1023.0 |
| 20260905093102 | 87 | 136 | 2.6 | 7.0 | 0.00 | 0.00 | 0.00 | 30 | 1023.1 |
| 20260905091606 | 86 | 5 | 0.0 | 2.6 | 0.00 | 0.00 | 0.00 | 30 | 1023.0 |
| 20260905090053 | 85 | 198 | 0.9 | 5.2 | 0.00 | 0.00 | 0.00 | 34 | 1022.8 |
| 20260905084618 | 84 | 0 | 0.9 | 3.5 | 0.00 | 0.00 | 0.00 | 34 | 1022.8 |
| 20260905083056 | 83 | 22 | 0.0 | 2.6 | 0.00 | 0.00 | 0.00 | 33 | 1022.6 |
| 20260905081559 | 82 | 0 | 0.0 | 2.6 | 0.00 | 0.00 | 0.00 | 35 | 1022.4 |
| 20260905074605 | 80 | 0 | 0.0 | 1.7 | 0.00 | 0.00 | 0.00 | 38 | 1022.3 |
| 20260905073103 | 80 | 0 | 0.0 | 3.5 | 0.00 | 0.00 | 0.00 | 39 | 1022.2 |
| 20260905071600 | 79 | 101 | 0.0 | 4.3 | 0.00 | 0.00 | 0.00 | 41 | 1022.1 |
| 20260905070105 | 77 | 0 | 0.0 | 1.7 | 0.00 | 0.00 | 0.00 | 44 | 1021.9 |
| 20260905064559 | 75 | 90 | 0.0 | 2.6 | 0.00 | 0.00 | 0.00 | 46 | 1021.7 |
| 20260905063058 | 74 | 86 | 0.0 | 1.7 | 0.00 | 0.00 | 0.00 | 45 | 1021.5 |
| 20260905061606 | 73 | 0 | 0.0 | 1.7 | 0.00 | 0.00 | 0.00 | 47 | 1021.5 |
| 20260905060100 | 73 | 0 | 0.0 | 2.6 | 0.00 | 0.00 | 0.00 | 47 | 1021.6 |
| 20260905054559 | 73 | 86 | 0.0 | 2.6 | 0.00 | 0.00 | 0.00 | 47 | 1021.5 |
| 20260905053141 | 73 | 339 | 1.7 | 3.5 | 0.00 | 0.00 | 0.00 | 46 | 1021.6 |
| 20260905051559 | 72 | 0 | 1.7 | 4.3 | 0.00 | 0.00 | 0.00 | 46 | 1021.7 |
| 20260905050056 | 72 | 355 | 0.9 | 3.5 | 0.00 | 0.00 | 0.00 | 46 | 1021.5 |
| 20260905044603 | 72 | 334 | 1.7 | 4.3 | 0.00 | 0.00 | 0.00 | 48 | 1021.6 |
| 20260905043103 | 72 | 0 | 0.0 | 2.6 | 0.00 | 0.00 | 0.00 | 48 | 1021.4 |
| 20260905041559 | 72 | 323 | 1.7 | 4.3 | 0.00 | 0.00 | 0.00 | 47 | 1021.5 |
| 20260905040053 | 72 | 0 | 0.0 | 2.6 | 0.00 | 0.00 | 0.00 | 47 | 1021.6 |
| 20260905034602 | 72 | 283 | 0.0 | 3.5 | 0.00 | 0.00 | 0.00 | 48 | 1021.4 |
| 20260905033102 | 73 | 307 | 0.0 | 3.5 | 0.00 | 0.00 | 0.00 | 46 | 1021.5 |
| 20260905031554 | 73 | 10 | 0.9 | 4.3 | 0.00 | 0.00 | 0.00 | 46 | 1021.5 |
| 20260905024623 | 72 | 360 | 0.0 | 3.5 | 0.00 | 0.00 | 0.00 | 48 | 1021.9 |
| 20260905023105 | 72 | 0 | 0.0 | 2.6 | 0.00 | 0.00 | 0.00 | 48 | 1021.7 |
| 20260905021552 | 72 | 0 | 0.0 | 1.7 | 0.00 | 0.00 | 0.00 | 49 | 1021.9 |
| 20260905020111 | 72 | 0 | 0.9 | 2.6 | 0.00 | 0.00 | 0.00 | 50 | 1022.0 |
| 20260905014615 | 72 | 318 | 1.7 | 4.3 | 0.00 | 0.00 | 0.00 | 49 | 1022.1 |
| 20260905013104 | 72 | 308 | 0.0 | 3.5 | 0.00 | 0.00 | 0.00 | 50 | 1022.0 |
| 20260905011559 | 73 | 326 | 1.7 | 4.3 | 0.00 | 0.00 | 0.00 | 49 | 1022.1 |
| 20260905004558 | 73 | 342 | 1.7 | 4.3 | 0.00 | 0.00 | 0.00 | 49 | 1022.1 |
| 20260905003056 | 73 | 329 | 0.9 | 3.5 | 0.00 | 0.00 | 0.00 | 49 | 1022.2 |
| 20260905001603 | 73 | 321 | 1.7 | 5.2 | 0.00 | 0.00 | 0.00 | 49 | 1022.2 |
| 20260905000109 | 73 | 338 | 1.7 | 3.5 | 0.00 | 0.00 | 0.00 | 48 | 1022.5 |
| 20260904234600 | 73 | 340 | 0.9 | 3.5 | 0.00 | 0.00 | 0.00 | 49 | 1022.7 |